Theta_e
338 336 334 334 333 331 332 334 338 339 339 339 339 339 339 339 339 339 340 339 338 338 336 334 331 326 318 312 310 310 310 311 314 318 319 319 318 320 321 325 328 326 321 316 318 323 320 314 315 315 312 312 312 312 312 312 313 314 317 322 325 325 324 324 325 325 323 321 324 325 324 325 325 325 325 326 326 325 325 324 324 325 326 327 328
336 336 333 334 334 332 331 331 335 338 339 339 339 340 338 339 339 339 339 338 338 337 335 331 328 325 317 313 313 312 310 310 315 317 317 317 316 317 320 324 328 326 321 316 320 323 318 313 313 313 312 312 312 312 312 312 313 316 319 323 325 327 327 326 326 326 324 320 320 321 324 325 324 325 326 327 326 326 326 325 325 325 325 326 326
336 336 334 335 334 332 331 330 331 336 339 339 339 339 338 338 338 339 339 338 338 336 334 330 325 322 316 314 314 311 311 311 314 315 315 315 314 316 320 325 326 326 322 316 316 317 314 312 312 312 312 311 312 311 312 312 314 318 321 324 326 327 327 328 328 327 325 322 321 319 321 324 324 325 326 327 326 327 327 327 327 326 325 325 324
336 336 335 336 334 332 331 330 329 331 336 339 339 338 338 338 338 339 339 338 337 336 333 330 326 321 315 314 313 312 314 315 314 314 315 314 314 317 322 324 324 323 323 319 313 312 312 312 312 311 312 311 311 311 312 313 315 319 322 324 326 326 327 328 328 328 327 325 323 321 318 321 324 324 325 326 326 326 327 328 327 327 327 325 323
337 336 336 336 334 333 331 331 329 328 330 334 336 339 338 338 339 339 339 338 337 336 333 330 325 319 315 313 311 314 318 319 319 318 318 316 316 321 324 323 322 322 321 319 313 311 312 311 311 311 311 311 311 311 312 313 315 319 321 323 325 326 327 328 328 328 328 326 325 323 320 318 321 324 324 325 326 326 327 327 327 327 326 325 322
336 336 336 335 334 333 332 331 330 328 327 327 331 337 339 338 339 339 339 339 338 336 334 329 322 317 316 314 311 316 319 319 319 321 320 318 318 323 324 321 320 321 321 319 314 311 311 311 311 311 311 311 311 311 311 312 315 317 319 320 323 325 326 327 327 327 328 327 327 326 324 318 317 324 325 324 326 326 327 326 326 326 325 324 322
335 336 335 336 334 333 333 331 330 329 328 327 327 333 338 340 339 340 339 339 338 336 335 328 321 318 315 314 314 316 320 319 319 320 319 319 321 322 322 322 322 322 322 321 317 312 310 311 311 311 311 311 311 310 311 311 314 316 317 317 319 322 324 325 326 327 327 328 328 327 326 318 313 323 326 325 326 326 327 327 326 325 324 323 321
335 336 335 336 334 333 333 332 331 329 329 328 327 328 334 339 339 339 339 338 338 336 334 326 320 317 313 315 318 318 319 320 321 319 318 322 324 320 318 320 322 321 320 319 317 313 311 311 310 311 311 311 311 310 311 311 313 315 316 317 320 322 323 323 323 325 327 328 328 327 324 315 312 322 326 326 326 327 327 326 325 324 323 322 319
334 334 334 334 333 331 331 330 330 328 327 326 327 326 330 336 339 339 337 337 336 335 332 323 317 315 313 314 318 320 317 317 320 319 319 323 323 318 317 317 318 319 317 315 315 314 310 311 310 310 311 311 310 310 311 311 311 314 316 317 321 323 324 323 321 323 326 327 327 327 321 312 313 320 324 326 326 326 326 324 324 322 321 320 317
333 332 333 333 331 329 329 329 328 325 323 323 324 325 327 329 334 337 336 336 334 332 326 317 314 314 316 316 315 316 315 313 315 320 322 321 319 317 315 316 317 317 316 316 317 316 312 310 310 310 311 310 310 311 311 311 311 312 314 316 320 323 324 324 322 322 326 326 326 326 319 313 315 319 320 323 323 324 324 323 322 320 319 317 313
333 333 334 333 332 330 329 328 326 324 322 322 322 323 323 322 326 329 332 333 330 327 320 316 315 315 320 320 316 314 315 314 313 318 322 319 317 316 315 315 316 316 317 318 319 317 312 310 310 310 310 310 310 311 310 311 311 311 312 313 320 323 323 324 322 322 325 326 326 323 317 316 319 321 323 323 322 322 323 323 321 320 317 313 307
335 335 335 334 334 331 329 329 326 324 322 321 321 320 320 319 319 320 323 324 323 320 317 317 315 317 324 325 322 317 315 316 314 315 318 318 315 314 315 315 316 316 317 319 319 317 313 310 310 310 310 310 310 310 310 310 310 311 311 312 317 320 321 320 320 321 324 326 325 320 315 318 323 324 326 326 324 324 323 322 320 318 314 308 303
337 336 336 334 333 330 329 329 326 324 322 321 319 318 318 317 316 316 315 316 316 315 316 315 313 320 328 328 326 321 318 319 317 314 314 315 315 314 315 316 318 316 317 318 318 317 315 311 310 310 310 310 310 310 310 310 310 310 311 311 313 316 317 316 316 320 324 324 324 320 315 319 324 325 326 326 326 324 323 321 320 318 314 307 302
336 335 335 335 333 330 328 327 326 324 322 320 319 316 316 315 315 314 313 312 313 314 313 312 314 321 327 328 327 325 322 320 319 315 313 313 314 315 315 317 317 315 316 317 315 314 313 311 310 310 310 310 310 310 310 310 310 310 311 311 311 312 313 314 314 317 321 322 322 320 318 319 323 325 326 326 326 325 323 322 321 318 313 307 302
335 333 332 333 333 329 327 326 325 324 321 320 319 316 314 313 313 313 313 313 313 313 312 314 319 320 324 329 328 326 324 320 319 316 313 313 313 314 314 316 315 314 314 314 313 312 310 310 311 310 310 310 310 310 310 310 310 311 311 310 311 311 312 313 314 316 319 321 320 318 320 320 321 325 326 326 327 325 324 322 321 316 311 306 302
333 332 331 330 329 326 326 325 325 324 322 321 320 318 314 312 312 312 312 313 313 314 314 317 321 320 324 330 329 328 326 323 319 316 313 313 313 313 313 313 312 312 311 311 311 310 310 310 310 310 310 310 310 310 310 310 310 311 311 310 311 311 312 312 313 316 318 321 320 318 321 321 320 323 325 326 326 325 324 322 320 317 313 307 301
332 331 329 327 325 324 323 323 323 322 322 321 321 319 317 313 312 312 311 311 312 314 314 315 317 319 324 328 328 328 327 325 321 318 315 312 313 313 312 311 311 310 309 310 309 309 310 310 310 310 310 310 310 310 310 310 310 311 311 311 311 311 312 312 312 315 318 322 322 319 321 323 322 323 324 325 326 324 323 322 319 316 313 307 302
331 329 327 325 324 323 322 322 322 321 321 321 321 320 319 316 313 311 311 311 312 313 313 314 314 316 320 324 326 326 326 326 324 321 319 316 315 314 313 312 311 310 309 309 309 309 309 310 310 310 310 310 310 310 310 310 310 310 311 311 311 311 312 312 312 314 317 321 322 320 322 324 324 324 325 325 323 322 322 321 317 313 310 306 302
330 327 325 325 324 323 321 321 321 321 320 320 321 321 320 318 314 312 311 310 311 312 311 312 314 314 317 319 321 322 323 324 325 324 322 319 318 316 313 312 311 310 310 309 309 309 309 310 310 310 310 310 310 310 310 310 310 310 310 311 311 312 312 313 313 313 316 319 321 321 322 324 324 325 326 325 323 319 318 319 316 313 310 305 302
328 328 325 324 324 323 322 321 321 320 320 321 321 321 320 319 316 314 311 311 310 311 311 311 313 314 314 315 316 316 317 320 322 323 322 320 318 317 315 313 312 311 310 309 309 310 309 310 310 310 310 310 310 310 310 310 311 310 310 311 311 312 312 312 312 312 315 317 320 320 321 323 325 325 325 325 324 320 318 317 315 313 309 304 301
329 327 325 323 323 323 323 322 322 322 321 321 321 321 321 320 319 316 312 311 309 309 310 310 313 313 312 312 312 312 313 315 317 318 319 318 317 316 315 314 313 311 311 310 310 310 310 310 310 310 310 310 310 310 311 310 311 311 311 311 311 312 312 312 312 312 313 315 318 319 319 323 324 324 325 325 324 322 320 315 311 309 306 303 301
329 328 326 324 324 323 323 323 323 323 322 322 321 321 322 321 321 319 315 312 309 309 310 310 311 312 311 311 311 310 311 312 313 314 315 315 315 315 314 313 312 312 311 310 310 310 310 310 310 310 310 310 310 311 311 311 312 312 311 311 311 312 312 313 312 312 312 312 316 317 318 322 323 323 324 325 324 323 319 314 309 306 302 301 301
328 328 327 327 326 326 325 324 323 323 323 322 322 322 322 322 322 322 320 316 312 310 309 310 311 311 311 311 310 310 310 311 311 312 313 314 313 313 313 313 313 312 311 310 310 310 310 310 310 310 310 310 310 311 312 313 313 313 313 312 312 312 312 313 313 312 311 311 314 316 316 320 322 323 324 323 323 322 319 313 308 303 302 301 301
327 327 327 327 327 327 327 326 326 325 324 324 323 323 322 322 322 323 322 321 318 314 311 310 310 311 310 310 310 309 309 309 310 311 312 313 313 313 313 313 313 312 311 310 310 310 310 310 310 310 310 309 310 310 312 313 314 314 313 313 312 312 312 313 312 312 311 311 313 315 315 317 320 322 322 323 323 321 318 313 307 303 302 301 300
326 327 326 326 326 325 325 325 326 326 326 326 325 325 324 323 322 322 322 322 322 320 316 312 310 310 310 310 309 309 309 309 309 309 311 313 313 313 312 312 312 312 312 310 310 310 310 309 309 309 310 310 310 310 311 312 312 312 312 312 312 312 312 312 312 312 312 310 311 314 315 316 319 321 321 321 321 320 317 313 309 305 302 301 301
321 321 321 321 322 322 323 323 324 325 325 326 326 326 326 325 324 323 323 322 322 322 321 317 313 311 310 310 309 309 309 309 309 309 310 311 312 311 311 310 311 312 312 310 310 310 310 310 309 309 310 310 310 310 311 312 311 311 311 311 311 311 311 311 312 312 312 311 311 313 314 316 318 319 320 320 320 318 316 314 309 305 303 301 300
316 315 315 316 317 317 318 319 320 320 322 324 325 325 325 326 326 325 324 324 323 322 323 322 319 315 311 310 310 310 309 309 309 309 309 309 310 310 310 310 310 311 311 310 310 310 310 310 309 309 309 310 310 310 311 311 312 311 310 311 312 312 311 311 312 312 312 312 311 311 312 315 317 318 318 318 320 319 317 314 309 305 304 302 301
317 315 315 314 314 315 315 315 315 316 317 319 320 321 322 324 326 326 325 325 324 324 323 323 322 320 316 312 310 310 310 310 309 310 309 309 309 309 308 309 310 310 310 310 310 310 310 310 310 309 309 310 310 310 310 311 313 313 312 312 313 313 312 312 312 311 312 312 311 311 311 312 315 316 315 315 319 321 319 314 310 309 306 303 301
317 316 317 316 315 315 315 314 314 314 314 314 316 317 318 321 323 323 324 324 324 325 324 323 323 322 321 318 314 311 310 310 309 309 309 309 309 309 308 308 309 309 309 310 310 310 310 310 310 309 310 310 310 310 310 311 313 313 313 313 312 313 312 312 312 311 311 311 312 311 311 311 312 313 312 313 317 320 319 314 313 314 311 308 305
318 318 317 317 317 317 316 316 315 315 314 314 314 314 316 317 318 319 321 322 323 325 325 325 324 323 322 321 319 315 312 310 309 309 309 309 309 309 308 308 308 308 308 309 309 309 310 310 310 310 310 310 310 310 310 311 312 312 313 312 312 312 312 312 312 311 311 312 312 312 312 311 310 311 310 312 316 317 316 313 314 316 315 314 310
318 318 318 318 318 318 317 317 317 317 317 316 315 314 314 315 316 317 319 321 323 325 326 326 325 324 323 322 321 319 316 313 310 309 309 309 309 309 309 309 308 308 308 308 308 309 309 310 310 310 310 310 310 311 311 311 312 312 313 313 313 312 313 313 312 311 312 311 312 312 313 312 311 310 309 311 315 315 313 314 317 317 316 315 314
319 319 318 318 318 318 318 318 318 318 318 317 317 316 315 315 315 316 317 319 321 324 325 326 326 325 324 322 321 321 320 317 313 310 309 309 309 309 309 309 309 308 308 308 308 308 309 309 310 310 310 310 310 311 311 311 312 312 313 314 314 313 313 313 313 312 312 312 312 312 313 314 313 310 309 309 312 312 310 314 319 319 317 315 315
320 320 319 319 319 318 318 318 318 318 318 318 318 318 318 317 316 316 316 317 319 320 322 324 325 326 325 323 322 321 320 320 318 314 311 309 309 309 309 309 308 308 308 308 307 307 308 309 309 309 310 310 310 311 311 311 311 312 313 314 314 314 314 314 313 313 313 313 313 313 312 313 314 312 310 307 307 309 307 309 316 319 318 317 316
323 322 321 320 319 318 318 318 318 319 319 319 319 319 320 319 318 317 316 316 316 317 318 321 323 325 326 325 323 321 321 320 320 318 315 312 310 309 309 309 308 308 308 308 308 308 307 308 308 309 309 310 310 310 310 311 311 311 312 313 314 313 314 314 314 314 314 313 313 314 313 313 313 313 312 308 304 305 305 305 312 318 319 318 317
324 323 323 323 321 320 318 318 318 319 320 320 320 320 321 321 320 319 318 317 316 316 316 317 319 322 324 325 325 323 321 320 320 320 319 317 314 312 310 309 309 308 308 309 308 308 307 307 307 308 309 309 309 310 310 310 310 311 310 311 313 313 314 315 314 314 314 314 314 314 314 314 313 313 313 310 305 303 303 303 308 315 318 318 317
325 324 324 323 323 321 320 319 319 319 319 320 320 320 320 321 321 321 320 319 318 317 316 315 315 317 320 322 324 324 323 321 320 320 320 320 318 317 314 311 309 308 308 308 308 308 308 307 307 307 308 308 309 309 310 310 310 310 310 311 312 313 315 315 315 314 314 315 315 314 315 314 313 313 312 312 310 306 303 302 306 311 315 318 317
327 326 325 324 324 323 322 321 321 320 320 320 320 320 321 321 322 322 321 320 320 319 318 317 316 315 315 316 319 323 324 323 321 320 320 321 320 320 318 315 311 309 308 308 308 308 308 307 307 307 307 308 308 309 309 310 310 310 310 311 311 312 314 316 315 315 315 315 314 315 315 314 314 313 313 313 312 311 307 304 305 308 311 315 317
327 327 326 326 325 324 323 323 323 322 322 322 322 322 323 323 323 322 322 321 321 321 320 319 318 316 315 314 315 319 323 324 322 320 320 320 321 320 319 317 315 312 309 308 308 308 308 307 307 307 307 307 308 308 308 309 309 310 310 310 311 311 313 316 316 315 315 314 313 313 313 314 313 313 313 313 313 313 312 308 306 307 309 312 315
326 326 327 327 326 325 324 324 324 324 325 325 325 325 325 324 324 323 323 322 322 321 321 320 319 318 317 316 314 315 319 323 324 322 320 320 321 321 320 319 318 315 312 309 308 308 308 308 307 307 307 307 307 307 307 308 309 310 309 310 310 311 313 315 316 316 315 314 314 313 313 313 313 312 312 313 313 313 313 312 310 309 308 309 313
325 325 326 326 327 326 326 325 326 326 326 326 326 326 325 325 324 324 323 322 322 321 321 321 320 319 319 318 317 315 316 320 323 323 321 320 321 321 321 320 319 317 314 311 309 309 309 308 308 308 307 307 307 306 307 307 309 309 309 310 311 312 314 315 316 316 315 314 314 314 314 313 313 312 312 313 314 314 314 314 313 312 310 309 310
326 325 325 326 326 327 326 326 327 326 326 327 327 326 326 326 325 324 324 323 322 322 322 322 322 322 322 321 320 318 316 316 320 323 323 321 320 321 321 322 321 318 316 313 311 309 308 309 308 307 307 307 307 307 306 307 309 310 310 312 313 313 315 316 317 317 315 314 313 314 313 313 313 313 314 315 315 315 315 315 315 314 313 312 311
326 326 326 326 326 326 326 326 326 326 327 326 326 327 326 326 326 325 324 323 323 323 323 324 323 324 324 323 322 321 319 316 317 320 323 322 321 321 321 322 321 320 318 315 314 311 309 309 308 308 307 307 307 307 307 308 309 309 310 314 315 314 315 316 317 316 314 313 313 313 312 313 314 315 316 317 317 316 316 316 315 315 314 314 314
327 327 327 327 327 327 326 326 326 326 326 326 326 326 326 326 326 325 324 323 322 322 324 324 324 324 324 324 324 322 321 319 316 317 321 323 322 321 321 322 322 321 319 317 315 313 311 310 309 308 308 307 307 307 307 308 308 308 312 314 315 315 315 315 315 314 314 314 313 313 313 314 315 316 317 318 318 317 317 316 315 315 315 315 315
326 327 327 327 327 327 326 326 326 325 325 325 325 326 326 326 326 326 325 323 323 323 324 324 324 324 324 324 324 324 322 321 318 316 317 321 323 322 321 321 322 322 321 319 317 315 313 311 310 309 308 308 308 308 308 308 307 309 313 314 315 316 317 315 315 315 315 314 313 314 314 315 315 316 318 318 317 317 316 316 315 315 315 315 315
327 327 326 327 326 326 326 326 325 325 324 324 324 325 326 327 326 326 326 325 324 324 325 325 324 324 324 325 325 324 323 322 320 318 316 316 320 322 322 321 321 322 322 321 320 318 315 313 312 311 310 308 308 308 309 309 309 309 311 313 316 317 317 316 316 316 316 316 316 316 316 316 316 317 317 317 317 316 316 316 316 316 316 315 315
327 327 327 327 327 327 326 326 325 325 324 324 324 325 326 327 327 326 326 325 325 325 325 325 324 324 325 325 325 325 324 323 322 320 318 316 316 319 322 323 322 322 322 322 323 321 318 316 313 312 311 310 309 309 308 309 310 310 310 311 314 316 316 316 316 317 318 318 318 318 318 318 318 318 318 318 317 317 317 318 317 317 316 316 315
326 326 327 327 326 325 325 325 325 324 324 323 324 325 326 326 327 326 326 325 325 324 324 325 324 325 325 325 326 325 325 324 323 322 320 318 317 316 318 321 322 323 322 322 323 323 322 320 316 313 312 311 311 309 309 309 310 311 311 311 312 313 313 314 315 316 317 317 318 319 318 318 318 319 319 318 318 318 318 318 318 318 317 316 316
325 325 325 324 323 321 321 322 323 323 322 322 323 323 324 325 325 326 326 325 325 325 325 325 325 325 325 325 325 325 325 324 323 322 321 320 319 317 316 318 320 322 323 323 323 323 324 323 320 316 314 313 312 311 310 309 310 312 312 312 313 314 313 312 313 314 316 316 317 317 318 318 319 319 319 319 319 319 319 319 319 319 319 318 317
323 323 322 321 320 319 319 320 321 321 321 321 322 322 323 323 324 325 325 325 325 325 325 326 326 325 325 325 325 325 325 324 323 321 321 320 320 319 318 316 317 318 321 322 323 323 324 324 323 320 318 315 313 312 311 310 310 311 312 312 314 315 315 314 313 313 315 316 316 316 317 318 318 319 319 319 319 319 319 319 319 319 320 319 319
321 321 320 320 319 319 319 319 320 320 320 320 320 321 322 323 323 324 324 325 326 326 326 326 326 326 326 326 325 325 325 324 323 322 321 320 320 320 319 318 317 316 318 319 321 322 323 324 324 323 322 319 316 313 312 311 311 311 311 311 312 314 315 315 315 315 315 316 316 316 317 317 318 319 320 319 319 319 319 319 319 319 320 320 320
320 320 319 318 318 318 319 319 319 319 320 320 320 320 321 322 323 324 324 324 325 326 326 326 326 326 326 325 325 325 325 324 324 323 322 321 321 321 320 320 319 318 317 317 318 319 321 323 324 324 323 322 320 317 314 313 312 311 311 311 311 313 315 317 319 318 316 317 317 317 318 318 318 319 320 320 319 319 319 319 319 319 319 320 321
Wind_Speed
11 10 10 8 7 8 8 10 11 10 10 10 10 10 9 9 9 8 8 7 5 3 2 3 5 8 10 9 9 8 7 7 8 7 5 4 4 4 3 4 5 3 3 6 9 11 12 13 13 14 15 15 15 16 16 16 16 16 16 17 16 15 15 16 18 19 18 16 15 13 14 15 14 14 16 17 15 16 16 16 17 17 17 16 15
13 12 10 9 7 8 8 9 10 10 10 10 10 9 9 8 8 8 7 6 3 1 1 2 5 9 9 9 9 8 6 7 8 7 5 3 2 2 4 7 7 7 7 9 10 12 13 14 14 14 14 14 15 16 16 16 17 17 18 18 18 17 16 15 15 16 16 16 15 13 15 14 13 14 16 16 14 14 16 16 16 16 15 13 13
11 12 11 9 8 8 7 8 10 10 10 10 10 9 9 8 8 7 6 5 1 1 2 4 7 10 10 9 8 7 6 7 8 7 6 3 3 6 9 10 10 10 10 11 11 13 14 14 14 14 14 14 15 16 16 16 17 18 18 19 19 18 16 15 14 14 13 14 15 14 14 14 14 14 15 16 14 14 15 16 15 15 14 12 12
7 11 11 9 9 7 6 7 9 10 10 9 9 9 9 8 7 7 6 4 1 1 2 5 7 10 10 9 8 6 7 8 8 7 6 5 7 9 11 11 11 11 11 12 14 14 14 14 14 14 14 14 14 15 15 15 17 17 17 18 18 17 15 14 13 11 11 11 13 12 13 13 14 14 15 15 13 13 15 15 14 14 14 12 11
7 11 11 9 9 8 7 7 8 9 10 9 9 9 9 8 7 7 5 3 1 1 3 5 6 9 10 9 7 6 6 7 8 7 7 7 10 11 11 11 11 11 11 13 14 14 14 14 14 14 14 14 14 13 14 14 15 16 16 16 16 15 14 13 12 10 9 8 9 10 11 11 12 14 14 14 12 13 13 12 12 12 12 10 9
8 11 12 10 9 8 7 7 7 8 9 9 9 9 8 8 7 6 5 3 1 1 3 5 6 9 9 7 6 6 6 6 8 8 8 10 11 11 10 11 10 11 11 12 14 14 14 14 14 13 14 13 13 12 13 13 14 14 14 14 14 14 13 12 11 9 8 6 6 7 9 10 10 13 13 12 11 12 12 11 11 10 9 8 8
10 12 12 10 9 8 7 7 7 7 7 8 9 9 8 8 7 6 6 3 1 2 4 5 6 9 8 6 5 5 5 6 7 8 9 10 11 10 10 10 10 11 12 12 13 14 14 14 13 13 13 12 12 11 11 11 12 13 13 13 13 13 12 11 10 9 8 5 4 6 8 9 9 13 13 11 11 11 11 10 9 8 7 7 6
10 11 12 10 9 8 6 6 7 6 6 6 8 10 9 8 7 7 6 4 3 3 5 6 5 7 7 4 5 5 5 6 7 8 9 9 9 9 9 10 10 11 11 11 12 13 13 13 13 12 12 11 11 10 10 10 11 11 12 12 13 13 12 10 8 8 8 5 3 6 8 9 10 13 13 11 10 10 9 8 7 6 5 5 5
10 11 11 11 9 8 7 6 6 5 5 6 8 10 10 9 9 8 6 5 5 5 5 6 5 6 4 3 4 4 4 5 6 8 9 8 9 9 9 9 9 11 11 10 10 12 12 12 12 11 11 10 10 9 9 9 10 11 11 12 13 13 12 9 8 8 7 5 4 5 8 10 10 12 13 11 10 9 8 6 5 5 4 4 5
8 9 10 10 9 8 7 6 5 4 5 6 7 9 11 11 11 10 8 6 6 7 7 7 5 4 2 2 3 4 4 4 5 7 8 8 8 8 8 8 8 10 10 10 10 10 11 11 11 10 10 9 9 9 8 8 8 9 11 11 12 12 11 8 7 7 5 4 5 5 8 10 11 10 11 10 8 7 6 5 5 4 3 4 5
7 6 6 7 7 7 7 6 6 4 4 6 7 8 9 10 12 12 11 10 9 9 9 7 4 2 2 1 2 4 4 4 4 5 7 8 8 7 8 8 8 9 9 9 9 9 10 10 10 10 9 9 8 8 8 8 7 8 9 11 13 13 11 9 6 6 5 4 5 6 9 10 11 10 10 8 6 5 5 5 4 3 3 4 5
7 6 5 5 6 6 6 6 5 4 4 5 6 7 7 7 9 11 12 12 12 10 9 6 3 2 3 1 1 3 4 3 3 4 5 6 8 7 7 7 7 8 8 9 8 9 9 9 9 9 9 8 8 7 7 7 7 7 7 9 12 12 10 8 6 7 7 6 5 6 9 10 10 10 9 7 5 4 5 5 3 3 3 4 5
9 8 7 6 6 6 6 6 5 4 4 5 6 6 6 6 7 7 9 9 9 8 8 6 2 4 5 4 2 3 4 3 2 3 5 5 7 7 7 7 6 7 8 8 8 8 8 8 8 8 8 7 7 6 6 6 6 6 6 8 10 11 9 6 6 8 8 6 6 6 8 9 9 9 8 7 5 4 4 3 2 2 2 4 5
12 10 8 7 6 6 7 7 6 5 5 5 6 6 6 7 6 6 6 6 6 6 6 4 4 7 8 6 5 4 4 3 3 4 4 5 5 6 7 6 6 7 7 7 7 7 7 7 7 7 7 6 6 6 5 5 5 5 5 6 8 8 7 6 6 8 7 6 6 6 8 8 9 9 8 7 6 5 2 1 0 1 1 2 4
12 10 9 8 8 8 8 7 7 5 5 6 6 6 7 7 7 7 7 6 6 5 5 4 6 9 9 8 6 5 5 5 5 5 5 5 5 5 5 5 6 6 5 6 6 7 7 6 6 6 5 5 5 5 4 4 4 4 4 5 5 6 7 7 6 6 6 7 7 7 9 8 9 9 8 7 7 6 3 2 2 1 1 2 3
11 10 10 10 10 9 8 8 7 6 5 5 6 6 6 7 7 8 7 7 6 5 5 5 8 10 10 9 8 7 6 6 6 6 6 6 5 5 6 5 4 4 5 5 5 5 6 5 5 4 4 4 4 3 3 3 3 3 3 4 4 5 6 6 5 5 5 6 7 8 9 9 8 9 7 7 8 6 4 4 3 3 2 1 1
11 12 12 11 11 10 9 9 7 7 6 6 5 5 5 6 6 7 7 6 6 6 6 6 9 11 11 11 10 8 7 7 6 5 6 7 7 7 6 5 4 4 4 4 4 4 5 4 4 3 3 3 2 2 2 3 3 2 2 3 3 4 4 4 5 5 5 6 7 8 9 9 9 9 8 8 8 7 6 5 4 4 3 1 1
13 13 13 12 12 11 10 10 9 9 8 7 6 5 5 5 6 7 7 6 7 7 7 7 9 12 13 12 11 10 9 8 7 6 7 8 8 7 7 6 5 4 4 4 4 4 4 4 4 3 2 1 1 1 1 2 2 2 2 2 3 4 4 4 5 5 5 6 7 9 9 9 9 8 8 8 9 9 9 8 6 4 3 2 2
14 13 13 13 13 12 11 10 10 9 9 8 7 7 6 6 6 6 7 7 8 8 8 7 9 12 13 13 13 12 11 10 9 8 8 8 8 7 7 6 6 5 5 4 4 4 4 4 3 2 1 0 1 1 1 1 1 1 1 2 3 4 4 5 5 5 6 7 8 9 9 9 9 8 7 8 9 10 10 9 7 5 4 3 3
14 14 14 14 13 13 12 11 11 10 10 9 8 8 8 7 7 7 7 8 8 9 8 8 9 12 13 14 14 13 13 12 11 10 10 9 8 8 8 8 7 7 6 6 5 5 4 4 3 2 1 1 1 2 2 2 1 0 1 2 3 4 5 6 6 6 6 8 9 9 10 10 9 8 7 7 8 8 8 9 8 6 6 5 4
15 15 14 14 14 13 13 12 12 12 11 11 10 10 9 9 8 8 8 8 9 9 9 9 10 12 13 14 14 15 15 14 13 13 12 11 10 10 10 10 9 9 8 8 7 6 5 5 5 3 2 2 2 3 3 3 3 2 2 2 3 4 4 5 5 5 6 7 8 10 11 11 8 8 8 7 8 8 8 7 7 7 6 6 5
14 14 14 14 14 15 14 13 13 12 12 12 12 12 11 10 10 9 9 9 10 10 11 10 11 13 14 14 15 15 15 16 15 14 14 13 13 12 12 11 11 11 10 10 9 8 7 7 6 5 3 3 2 3 4 4 4 4 4 3 3 4 3 4 4 4 6 6 7 10 12 12 9 9 10 9 10 12 11 7 6 7 7 6 6
13 12 12 13 14 14 14 15 15 15 14 14 13 13 13 12 10 10 9 10 10 11 12 12 13 13 14 15 15 15 16 16 16 16 15 15 14 14 13 13 13 12 12 11 11 10 9 8 7 6 5 4 4 4 4 5 5 5 5 4 4 5 3 3 5 4 6 7 7 10 14 14 11 10 11 11 11 14 13 8 7 8 8 7 8
11 10 11 12 13 14 14 14 15 16 16 16 15 15 14 13 12 11 10 10 10 12 13 14 14 15 15 15 16 16 16 17 17 16 16 16 15 15 14 14 14 14 13 13 12 12 11 10 9 8 7 6 5 5 5 5 5 6 6 5 5 5 4 4 5 4 5 7 8 11 14 15 14 12 12 12 12 14 13 9 9 9 9 9 9
9 11 12 13 13 14 14 15 15 15 16 16 16 15 16 15 14 13 13 12 12 12 13 14 15 16 16 16 17 17 17 17 17 17 17 16 16 15 14 14 14 15 14 14 13 13 12 11 10 9 8 7 7 7 7 6 6 7 8 8 7 7 6 6 5 4 5 8 10 11 14 16 16 13 12 13 15 15 14 12 10 10 10 10 10
9 11 11 12 12 13 14 15 16 16 16 17 17 17 17 17 17 16 15 15 14 14 14 14 15 16 17 17 18 18 19 19 18 18 16 16 16 14 14 14 14 15 15 15 14 15 14 13 12 11 9 8 9 9 9 8 7 9 10 10 9 9 8 7 7 6 5 8 11 12 15 17 17 16 12 12 14 15 14 12 11 10 11 12 12
9 9 9 10 11 12 13 14 15 15 16 17 18 18 18 18 18 18 18 18 17 16 16 15 15 16 17 17 18 19 20 19 19 18 16 15 16 15 15 15 15 15 16 16 16 16 15 15 14 13 11 10 10 11 10 9 9 10 11 11 10 10 9 8 8 8 6 8 11 12 15 18 19 19 16 13 12 14 13 10 11 11 12 13 13
10 9 8 9 10 11 12 13 13 14 15 16 17 18 18 19 20 20 20 19 19 19 18 17 16 16 17 17 19 19 20 20 19 18 17 17 17 16 16 16 16 15 16 17 17 17 17 17 16 14 13 12 12 12 11 9 10 12 12 12 11 11 10 10 10 9 8 8 10 13 15 17 19 20 19 16 13 14 13 10 12 12 14 14 15
11 10 10 10 10 11 12 13 13 13 14 14 16 16 17 19 20 21 20 20 19 19 20 20 19 18 17 17 18 19 20 20 19 19 19 19 19 18 18 18 17 16 16 18 18 17 18 18 17 16 15 14 14 13 12 11 12 13 13 13 12 11 11 11 12 11 10 10 10 12 15 16 18 19 20 18 16 16 14 12 13 12 14 15 16
13 12 13 12 11 12 13 13 13 13 14 14 15 15 16 18 19 20 20 20 20 19 20 21 21 20 19 18 18 19 20 21 20 20 20 21 20 20 20 19 18 18 18 18 17 17 18 18 18 18 16 16 15 14 13 13 13 13 14 14 13 12 13 13 13 12 11 12 12 12 15 17 18 19 19 20 19 19 17 14 13 13 13 15 15
16 16 15 14 14 15 14 14 14 14 15 16 16 15 16 17 17 18 20 20 21 21 21 22 22 23 22 21 20 20 20 21 22 21 22 22 22 21 20 20 20 20 19 19 18 18 18 18 19 18 17 17 16 15 15 15 15 14 15 16 15 14 14 14 14 14 13 13 13 13 14 16 18 19 19 20 22 22 19 15 14 13 14 15 15
17 17 16 16 17 17 16 16 16 16 17 17 17 17 16 16 16 18 19 20 21 22 23 23 23 23 23 23 22 22 22 22 22 23 24 24 24 22 21 21 21 21 21 20 20 20 19 19 19 19 18 18 17 16 17 17 16 15 16 17 17 16 16 16 15 15 15 15 15 15 14 15 17 19 20 22 22 23 21 17 16 15 14 14 14
17 17 17 19 19 19 18 17 17 18 18 18 18 18 17 17 17 17 18 20 21 22 23 24 24 24 24 25 25 24 24 24 24 23 25 25 25 24 23 22 21 21 21 21 22 22 21 21 20 20 20 19 19 19 19 19 17 16 17 18 18 18 18 18 17 16 17 17 16 16 16 15 16 18 21 22 23 24 22 20 19 17 15 14 13
19 19 21 22 21 20 20 19 19 19 19 19 19 19 18 18 18 19 19 20 21 22 23 24 25 26 26 27 27 27 26 25 25 24 25 26 26 26 25 23 22 21 22 23 23 24 23 23 21 21 21 21 21 20 20 19 18 18 19 19 19 20 20 20 19 18 19 18 18 18 17 17 17 18 20 21 23 24 24 23 22 20 18 17 16
23 23 24 23 23 22 21 21 21 21 20 21 21 20 19 19 20 21 21 21 22 23 23 24 25 26 27 28 28 28 28 27 26 25 26 26 27 27 26 25 23 22 23 24 24 25 25 24 23 22 22 22 23 22 21 20 20 20 20 20 20 21 22 21 20 20 20 19 19 19 18 18 18 19 19 20 22 25 25 25 24 23 21 21 20
24 25 25 25 25 24 23 22 22 22 22 23 23 23 22 22 23 23 23 23 24 24 23 23 24 25 27 28 29 28 28 28 28 27 27 27 28 28 27 26 25 25 24 25 26 26 26 26 25 24 23 24 24 23 22 22 22 22 22 21 21 22 23 23 22 22 21 20 20 20 19 19 18 19 20 19 21 23 25 26 26 26 24 24 24
22 23 24 25 26 26 25 24 23 23 23 25 25 26 26 26 26 25 26 26 26 26 25 24 25 25 26 27 28 29 29 28 28 28 28 28 28 28 28 27 27 26 26 26 27 27 26 27 26 25 25 25 25 24 24 23 23 24 24 24 23 23 24 24 23 23 23 22 22 22 22 21 20 20 21 21 20 21 24 26 27 28 27 27 27
22 22 22 24 25 26 26 25 25 24 24 26 26 27 27 27 28 28 28 28 29 28 27 27 27 26 26 26 27 29 30 29 29 29 29 29 29 29 29 28 28 28 28 28 28 28 27 28 27 27 26 26 26 26 25 24 24 25 26 26 25 24 24 24 25 25 25 25 24 24 23 23 22 22 23 23 22 22 22 24 27 29 29 29 30
24 23 22 23 24 25 26 26 26 25 26 26 27 28 28 29 30 30 31 31 31 31 30 30 29 28 28 27 28 28 29 30 30 30 30 30 30 30 30 29 29 29 30 30 30 29 29 29 29 28 27 27 27 26 25 24 25 26 27 27 26 25 24 24 26 27 27 27 26 25 24 24 25 24 24 23 23 23 22 22 25 28 30 30 31
25 25 24 24 24 24 26 27 27 27 28 28 29 30 30 31 32 33 34 34 33 33 32 32 31 30 29 30 30 29 28 30 31 31 31 32 31 31 31 30 30 31 31 32 32 31 31 30 29 28 28 28 28 27 26 25 26 27 28 27 26 25 25 26 27 28 28 29 28 27 27 27 26 25 24 23 23 23 23 22 23 25 27 30 31
26 27 27 27 26 25 27 28 28 29 30 31 32 32 33 33 34 35 35 35 35 34 33 33 32 30 30 32 33 32 30 29 30 32 33 33 33 32 32 32 32 32 32 32 33 32 32 31 29 29 29 29 29 28 26 26 27 28 29 28 27 27 27 27 29 30 30 30 30 29 29 29 28 26 24 23 23 24 24 24 23 23 24 26 28
28 28 29 29 29 28 29 29 29 31 32 33 33 34 34 34 34 35 34 34 34 34 33 32 31 30 31 34 34 34 32 31 31 32 33 34 34 35 34 34 33 32 32 32 33 34 33 32 31 31 30 30 30 28 26 27 29 30 29 28 28 29 29 30 31 32 32 32 31 31 30 30 28 26 24 25 24 25 25 25 24 23 23 24 25
28 29 30 30 30 30 31 31 31 31 33 34 35 35 34 34 34 34 34 34 35 35 34 32 32 32 33 34 35 35 34 33 32 32 34 35 35 36 36 35 34 33 33 33 34 35 36 35 34 33 32 31 31 29 28 29 30 30 27 28 30 28 28 31 33 34 32 32 32 31 30 29 28 25 25 26 25 25 25 25 24 24 23 23 23
29 29 30 30 30 31 31 31 31 31 32 33 34 35 34 34 34 34 34 35 36 36 36 35 35 36 37 36 36 36 36 35 33 33 33 34 36 37 37 37 36 34 34 34 35 36 37 37 36 35 34 33 33 32 31 31 32 30 27 28 27 24 26 30 31 30 29 30 31 30 29 28 25 24 25 26 24 23 23 24 24 24 23 23 23
30 29 29 29 29 29 29 30 31 31 31 32 33 34 35 36 36 35 35 36 38 39 39 40 40 40 39 37 36 37 37 36 35 34 33 34 35 37 37 38 38 36 35 36 36 36 37 38 38 37 37 36 35 33 32 32 33 33 31 28 24 22 26 28 27 26 25 26 27 26 27 26 24 23 24 25 23 22 23 24 24 24 23 24 24
31 29 28 27 27 28 28 29 30 31 31 32 32 33 35 36 37 37 38 38 40 41 42 41 41 40 39 37 36 36 37 37 36 35 35 34 35 36 38 39 39 38 38 37 37 37 38 38 38 39 39 38 36 35 35 34 33 34 36 35 29 27 28 25 23 24 24 25 26 25 26 26 24 24 25 25 25 24 23 24 24 23 23 23 24
30 28 26 25 25 26 27 28 29 30 30 30 31 32 34 36 37 39 39 40 41 43 42 42 41 40 39 38 37 37 37 37 37 36 36 35 35 36 37 38 39 39 39 39 39 39 39 38 38 39 39 38 37 38 38 36 36 37 37 37 36 35 34 30 28 26 24 26 28 27 28 26 25 26 27 27 27 26 25 24 24 23 22 23 23
22 22 22 22 22 22 23 24 25 26 26 27 29 30 32 33 35 38 39 41 42 42 42 42 42 41 40 39 38 37 37 37 37 37 36 36 35 35 36 37 39 39 40 41 41 40 39 39 39 39 40 40 40 40 39 38 39 40 38 37 36 36 37 37 36 33 29 29 31 32 32 29 28 30 31 30 30 29 28 27 26 25 24 23 24
14 16 17 18 19 19 20 22 23 23 23 23 25 28 30 31 33 36 39 40 41 41 41 42 42 42 42 41 39 39 38 38 38 37 36 36 36 35 35 36 37 38 39 41 41 41 41 40 40 40 40 41 41 41 41 41 41 41 39 39 38 37 37 37 38 38 35 34 35 37 37 34 33 34 35 35 34 32 32 31 29 28 26 25 25
12 13 15 16 16 16 18 20 21 22 22 23 24 27 29 31 33 35 38 39 40 40 41 42 42 43 44 42 41 40 40 40 39 39 38 37 37 36 36 36 36 37 38 39 40 41 41 42 42 42 41 41 42 42 42 42 42 42 41 41 40 39 39 39 39 40 40 39 40 41 41 39 39 40 40 38 37 36 35 34 33 31 30 29 26
10 11 12 12 13 14 16 18 19 20 22 23 24 26 28 31 33 35 36 37 38 39 41 41 42 43 44 43 42 42 41 41 41 41 40 39 38 38 38 37 37 37 38 39 40 40 41 42 42 42 42 43 42 43 43 42 43 43 43 44 44 43 43 42 42 42 41 42 43 44 44 43 43 44 43 41 40 39 38 38 38 36 34 32 29
Wind_Direction
175 168 167 157 153 149 139 131 126 127 129 131 132 132 129 128 126 123 119 115 107 71 30 44 49 43 40 52 66 84 127 152 152 166 163 153 160 171 159 117 100 81 66 90 98 92 89 87 86 87 87 89 92 95 97 99 99 97 98 99 96 88 87 89 84 75 72 79 86 87 86 83 84 93 94 85 82 84 85 84 84 85 85 86 86
166 161 167 160 161 154 144 134 131 132 131 135 135 134 130 131 130 126 124 123 117 47 22 60 61 44 37 54 70 79 111 142 142 161 171 169 156 149 128 111 102 93 95 105 98 87 88 87 88 92 91 93 94 95 96 97 96 93 95 97 97 93 90 88 85 80 74 72 75 84 93 90 90 98 93 85 85 86 86 85 85 87 88 91 91
164 162 166 162 163 159 149 135 137 139 134 136 136 136 134 134 135 130 128 131 115 31 24 30 52 41 38 61 75 78 93 134 146 162 173 182 134 117 112 108 106 100 98 103 98 88 88 90 91 92 92 93 93 95 96 96 96 96 98 98 97 94 90 85 81 80 78 75 68 70 89 97 98 99 93 88 89 88 88 87 86 87 88 90 90
180 166 165 162 161 161 156 138 138 142 140 139 137 136 135 136 136 133 128 127 76 45 34 19 37 38 44 66 70 76 89 124 146 156 160 156 127 116 109 105 105 100 96 98 99 93 90 89 89 88 90 92 93 95 97 98 100 103 103 100 98 94 91 87 84 80 75 77 74 69 80 92 99 98 93 91 91 91 89 90 90 89 90 88 86
195 173 165 161 159 162 159 146 139 140 140 140 139 136 136 138 137 133 127 126 96 45 28 14 24 37 46 57 61 77 94 113 125 131 133 130 122 111 107 107 104 102 97 96 99 97 93 90 89 89 89 91 95 97 100 103 106 109 107 102 101 100 98 94 91 89 81 77 78 76 75 79 96 99 91 91 93 93 91 93 94 96 98 91 82
201 179 166 161 158 163 164 157 149 143 140 138 138 137 137 140 140 137 130 139 154 16 360 359 15 32 38 40 57 83 97 110 113 117 119 120 117 108 107 108 104 102 98 96 102 102 98 95 93 93 92 93 95 98 102 106 111 112 108 105 106 107 107 105 102 101 95 81 73 76 71 66 93 101 91 90 92 93 94 95 98 101 97 85 77
195 175 164 161 160 166 167 166 161 152 145 140 139 141 142 144 142 137 132 149 223 298 320 337 9 23 26 34 67 92 100 108 114 118 119 117 114 112 111 107 104 102 101 98 102 106 103 101 97 95 95 95 96 98 102 107 114 115 113 110 108 108 110 112 114 118 113 99 80 76 66 63 97 109 96 94 94 95 99 102 104 101 93 81 73
178 167 163 161 165 167 165 172 171 165 161 151 149 149 150 152 146 144 147 168 234 271 296 319 359 13 19 52 84 93 104 114 122 126 122 116 113 116 113 107 106 106 106 104 104 107 105 103 99 98 98 98 98 99 104 109 115 121 121 115 109 107 109 114 119 123 118 118 97 73 67 72 106 114 104 103 102 105 110 116 115 105 98 82 69
173 162 159 163 169 164 162 173 178 180 180 175 166 159 160 164 158 155 163 185 229 254 276 304 340 8 23 75 100 98 103 118 125 129 125 117 116 116 115 112 111 111 112 113 110 108 106 103 101 101 100 99 100 101 104 110 119 128 129 123 116 112 113 118 120 118 116 122 110 82 78 88 111 115 112 115 115 120 123 124 120 112 104 79 66
175 154 150 161 165 160 162 169 174 184 181 182 180 172 173 176 175 169 168 188 222 248 270 293 325 15 58 100 121 121 108 115 121 129 130 125 127 122 122 123 117 115 115 114 113 110 108 105 104 102 100 99 98 101 106 112 119 129 136 132 125 125 127 128 117 114 116 116 107 95 94 102 115 114 113 122 130 138 141 135 126 115 99 74 63
175 151 151 162 166 164 164 168 167 173 170 174 181 184 189 188 190 189 187 202 224 247 267 285 310 39 95 108 133 140 129 120 125 137 138 135 140 133 126 125 119 119 118 115 113 110 109 107 105 103 100 99 96 99 104 110 116 124 137 140 139 140 140 141 130 133 147 131 107 98 110 118 119 111 107 116 132 145 150 144 129 112 89 68 60
177 171 182 184 185 175 167 178 172 175 173 172 179 183 195 197 197 199 202 213 227 241 252 267 286 100 118 135 167 157 152 132 135 149 150 143 144 143 133 128 123 125 127 120 117 115 113 110 107 104 99 96 93 94 95 101 111 119 133 143 149 156 158 157 150 151 161 151 126 102 116 128 119 108 108 114 124 146 154 142 119 102 78 63 63
182 192 197 194 192 185 179 188 184 187 188 181 183 178 190 207 208 203 206 213 220 231 237 245 222 152 144 161 208 202 183 169 170 165 160 156 150 151 144 137 129 128 132 124 122 117 114 112 106 103 96 95 93 91 90 93 103 112 128 143 154 168 175 172 156 153 161 152 125 104 119 132 122 115 119 123 130 153 150 128 105 92 60 56 71
186 198 196 197 197 195 189 192 195 195 199 191 187 183 188 203 214 214 213 213 211 221 231 228 188 167 161 175 214 220 214 211 202 183 169 172 163 155 147 142 138 136 135 125 123 118 113 111 105 101 97 95 93 92 92 92 100 108 124 138 151 166 173 176 166 157 155 139 124 122 132 137 129 126 131 137 153 174 166 117 71 42 35 51 74
192 197 198 206 204 202 196 199 202 201 208 199 190 187 188 195 207 215 214 212 210 216 220 203 178 171 164 172 205 218 223 221 203 195 187 186 179 166 157 147 142 138 131 122 123 121 117 114 108 105 102 97 93 96 98 97 98 104 120 133 144 157 166 179 173 161 150 132 133 142 142 142 137 136 140 153 172 188 216 263 277 308 346 39 78
205 200 200 205 203 204 203 204 210 214 217 210 205 194 189 194 201 210 211 211 207 206 204 190 179 173 168 171 191 204 206 213 209 200 199 201 194 185 176 160 152 142 133 131 127 126 125 123 119 117 108 99 98 101 102 100 96 98 114 130 146 158 172 187 177 170 160 136 140 149 150 149 145 146 151 172 192 203 232 260 272 276 288 344 96
215 203 196 200 201 200 201 205 212 219 224 221 219 209 202 203 204 212 214 216 207 203 201 193 188 181 177 178 184 190 195 214 226 216 209 211 208 197 187 180 176 164 150 147 142 143 143 138 137 133 118 104 102 99 95 93 89 98 114 140 164 175 188 203 191 183 165 147 153 159 160 159 154 155 161 181 206 225 243 254 260 259 262 266 158
218 211 197 195 199 199 200 205 211 217 225 224 224 221 217 216 217 222 220 217 211 212 211 200 198 192 188 189 190 193 200 215 226 226 216 211 214 210 200 194 191 185 176 165 163 168 162 159 159 150 130 103 82 66 67 73 79 95 127 169 193 198 209 217 205 194 172 163 168 171 170 167 164 163 172 193 219 237 247 252 249 245 250 242 199
214 217 206 198 201 203 203 208 216 219 224 225 227 225 222 225 226 232 230 224 220 220 220 206 202 202 201 200 200 201 205 213 218 222 221 220 223 221 214 208 202 198 196 186 182 188 183 183 185 174 161 117 13 4 7 18 48 96 154 195 215 213 217 218 207 201 188 178 178 181 179 177 176 172 182 215 238 242 242 245 243 242 247 234 212
211 217 216 210 210 209 207 213 221 222 227 227 230 230 227 229 229 233 235 235 232 229 226 214 207 208 208 208 210 211 211 215 219 222 225 231 233 228 227 225 218 209 207 204 198 201 204 207 211 206 209 256 331 328 320 319 320 284 218 220 235 226 221 222 211 207 201 188 186 191 189 186 184 178 184 219 244 250 240 233 231 239 244 231 216
214 217 221 223 225 225 219 220 224 224 227 229 231 235 233 231 232 234 234 236 238 238 235 223 215 212 210 212 215 219 219 220 222 226 230 233 235 233 235 235 227 216 213 212 208 206 212 220 224 225 234 262 299 305 302 299 292 287 265 247 256 244 227 228 222 208 205 198 192 193 195 192 188 189 192 205 230 247 246 235 227 230 230 223 217
219 220 224 231 239 243 242 238 237 235 233 233 233 234 237 234 232 234 235 235 236 240 240 233 224 218 216 217 220 221 224 225 225 229 233 236 237 237 238 237 231 222 217 217 215 211 215 223 226 229 238 255 277 286 291 291 284 286 280 273 273 260 235 227 236 218 206 210 199 194 198 197 194 200 205 210 229 242 247 244 232 227 218 217 221
220 225 230 236 244 249 253 252 250 251 247 245 241 238 240 238 235 238 239 238 239 240 241 241 234 228 226 227 228 226 227 229 229 231 233 237 239 239 237 235 232 229 224 222 223 221 222 226 229 234 237 246 258 265 277 280 278 284 286 290 284 273 266 233 239 233 212 214 209 200 202 204 203 206 211 218 235 244 246 238 227 227 219 217 224
223 228 231 232 237 243 250 253 253 255 255 254 252 247 245 242 239 238 241 241 243 245 245 245 241 237 236 237 238 236 233 234 234 235 236 237 237 236 236 235 233 231 230 226 226 228 230 232 234 238 241 249 252 257 267 274 281 289 295 302 296 287 290 266 251 242 218 215 215 207 206 211 212 211 215 218 232 245 246 239 230 230 224 220 224
237 233 229 228 231 236 241 246 250 253 255 257 257 254 248 245 243 239 240 240 240 245 246 247 246 243 243 244 246 246 244 241 240 238 237 237 236 235 235 235 234 234 234 231 228 230 233 233 236 240 244 250 253 257 262 268 282 291 298 303 301 295 289 276 266 253 220 214 217 211 210 215 217 215 214 220 230 240 247 249 242 234 227 222 225
243 240 235 235 236 237 238 240 245 248 251 255 258 256 251 247 247 244 242 241 240 242 243 245 246 246 245 246 247 251 252 251 250 246 240 239 240 240 239 239 239 240 241 238 233 232 235 235 236 239 241 245 251 258 261 266 277 282 290 296 297 295 286 278 273 262 230 218 219 214 213 216 221 221 218 225 236 245 249 246 239 236 231 224 225
247 249 247 245 245 245 243 242 244 247 248 251 254 255 253 251 250 249 247 245 244 242 243 244 245 246 246 247 248 251 255 256 258 258 253 248 248 249 249 248 245 247 248 247 242 237 237 236 236 238 238 239 246 255 260 265 271 273 281 285 286 287 286 282 277 268 247 229 223 219 218 218 224 227 227 229 239 255 254 241 237 236 233 227 225
253 250 249 248 249 251 250 249 247 248 249 249 250 253 254 252 251 253 252 251 248 246 246 246 245 245 245 246 248 250 253 254 257 260 260 257 254 254 255 256 253 253 254 254 251 244 240 237 237 237 238 239 242 251 256 258 260 264 270 272 273 278 282 283 280 273 262 247 233 227 224 221 225 229 233 231 233 249 250 252 253 237 230 229 226
253 252 253 252 251 252 253 253 251 251 252 252 251 253 254 253 252 253 255 256 255 252 249 249 247 245 245 245 246 249 251 253 254 257 259 260 259 257 256 258 257 254 253 254 254 251 245 241 240 239 240 242 243 247 251 250 250 254 260 265 270 274 281 283 280 277 269 260 249 238 232 227 227 229 233 231 228 234 238 256 259 235 226 227 225
254 255 256 256 255 254 255 255 255 255 253 254 254 254 254 254 255 256 257 257 258 256 252 250 249 246 246 246 247 249 251 252 252 253 256 258 260 260 259 258 255 253 252 252 253 252 250 246 244 242 241 241 245 248 250 250 251 255 261 268 273 276 281 283 280 278 271 264 259 248 239 235 232 231 233 231 229 231 238 252 250 234 228 226 224
252 253 256 258 257 256 258 258 257 256 254 255 256 254 253 255 257 257 258 257 257 257 255 253 252 249 248 247 247 249 252 253 251 250 253 256 257 259 261 259 256 254 254 255 254 253 253 251 248 248 245 243 246 249 251 252 254 259 264 268 272 276 278 279 281 280 274 267 263 256 246 241 239 235 233 232 232 235 240 246 242 236 231 228 226
249 254 258 256 256 256 258 257 256 256 255 257 258 256 255 256 256 255 256 257 257 256 256 255 254 253 251 248 247 248 250 252 252 251 252 254 255 255 257 259 259 258 257 258 257 256 254 253 251 250 250 248 247 247 250 252 254 257 261 265 270 274 276 277 281 282 277 272 267 261 253 246 243 241 237 234 235 239 241 238 240 240 232 234 229
254 259 257 253 254 256 256 255 254 254 255 258 260 261 260 259 259 258 256 256 255 256 256 257 257 256 254 251 248 247 248 249 250 251 252 254 254 254 254 255 258 259 259 258 257 257 255 254 253 252 251 249 248 248 249 251 253 255 257 262 266 271 275 276 280 282 280 278 272 268 264 257 249 246 243 239 238 241 242 236 237 240 237 238 230
261 259 256 255 255 254 255 254 252 252 255 258 259 262 264 263 263 262 259 257 257 258 258 258 258 257 256 255 252 249 248 248 248 249 251 254 255 254 253 253 254 256 258 257 256 256 255 255 254 254 252 251 252 252 251 252 254 256 257 259 262 267 270 272 276 278 279 280 276 273 270 266 259 253 248 243 241 241 243 239 234 237 239 240 234
261 257 257 259 259 256 255 254 253 252 253 255 259 263 267 267 266 264 261 259 258 259 259 260 259 258 257 257 255 252 249 248 248 247 248 252 255 256 255 254 252 252 255 257 256 254 254 255 254 253 253 253 255 255 254 255 256 258 260 260 261 264 266 268 271 274 278 279 278 276 273 270 267 262 254 247 244 242 243 241 235 234 236 240 241
260 259 259 260 260 259 257 257 256 254 253 255 259 264 267 267 266 263 260 258 257 257 259 261 261 259 258 258 258 255 251 249 249 248 247 250 254 257 258 255 252 251 252 254 256 255 254 254 253 252 252 253 256 256 256 257 258 261 264 262 261 261 262 266 269 274 279 279 278 277 275 273 271 269 264 256 249 246 245 243 239 235 232 237 243
263 262 262 261 261 260 259 259 259 259 259 259 261 263 266 266 265 262 258 256 256 257 259 260 260 260 260 260 260 258 256 252 250 249 249 250 253 257 258 257 254 252 252 252 254 256 256 255 254 252 251 253 254 255 256 257 259 261 263 263 261 258 259 263 269 273 276 276 276 277 276 277 277 276 272 266 260 252 248 245 243 239 233 233 239
266 263 263 263 263 262 261 262 264 264 264 262 262 264 265 265 263 260 257 256 256 258 259 258 259 261 262 264 262 260 258 255 252 250 250 250 251 254 256 257 256 254 253 253 254 255 255 255 254 252 251 252 253 255 257 257 259 261 262 262 260 258 258 260 264 268 271 272 274 275 276 277 278 278 275 270 268 263 254 247 245 244 240 235 237
267 265 265 263 263 262 261 262 263 263 263 263 263 263 263 262 261 258 255 254 254 255 256 258 260 261 263 265 264 262 260 258 255 252 251 251 251 251 253 254 255 255 254 253 253 254 255 255 254 253 252 253 255 256 256 256 256 258 259 260 260 260 260 259 261 264 267 270 272 273 274 274 277 279 276 271 270 268 262 253 248 247 246 242 240
269 267 266 264 261 260 259 260 260 261 262 262 262 260 258 258 258 255 254 254 254 254 255 257 260 262 265 265 264 263 261 259 257 254 252 252 252 252 252 253 254 254 254 254 254 255 257 257 257 256 254 254 255 255 254 253 253 256 258 259 259 260 259 259 260 262 264 267 269 271 272 273 274 276 276 273 270 268 266 262 255 250 248 246 245
266 265 264 263 262 261 260 261 262 263 263 262 262 260 259 259 258 257 259 260 258 256 257 258 260 265 267 266 265 265 263 259 257 255 253 252 252 252 252 253 253 254 255 256 257 257 257 257 257 256 254 253 253 253 252 250 250 253 255 256 258 259 258 259 260 260 262 266 267 267 269 271 273 273 275 274 271 268 268 266 263 258 253 248 247
263 262 264 265 266 265 264 265 266 264 264 264 264 263 264 264 264 265 268 267 263 261 262 263 265 267 268 267 267 267 266 263 258 256 254 253 252 252 253 253 253 255 257 257 256 256 255 254 253 253 252 252 253 253 249 244 245 250 251 252 256 258 256 255 258 260 262 264 265 265 267 268 270 272 272 271 270 269 268 267 266 265 260 255 250
263 264 265 266 267 267 267 267 267 266 266 265 264 264 266 268 269 269 269 267 265 265 265 265 265 266 266 266 266 266 265 264 260 256 254 254 252 252 254 254 254 255 256 257 256 255 254 253 252 252 252 252 253 252 248 243 244 248 245 245 250 256 257 254 256 261 263 264 264 264 265 266 268 271 269 267 267 265 265 265 266 266 265 260 255
261 263 264 264 265 266 268 268 267 268 267 266 265 265 266 267 267 267 266 264 263 263 262 262 262 262 263 264 264 264 263 263 261 258 255 254 254 253 253 254 255 255 256 257 257 257 256 254 253 252 250 249 251 252 249 245 244 241 237 239 243 247 254 258 261 266 266 263 263 262 263 263 265 267 264 264 264 263 263 263 264 265 265 261 257
261 264 265 266 267 267 268 269 269 269 267 266 266 265 264 262 261 260 258 257 256 255 255 257 258 260 262 265 265 264 263 263 262 260 258 256 255 254 254 253 254 255 255 256 258 259 258 256 254 253 251 250 252 254 252 248 246 244 240 238 235 237 252 262 267 269 267 263 263 262 260 259 260 260 259 260 261 261 262 262 261 261 261 260 257
263 266 267 268 270 271 271 270 269 268 267 266 266 265 262 260 258 256 255 255 255 256 258 261 263 265 269 271 269 266 265 266 265 263 262 259 257 256 254 253 253 254 255 256 258 259 258 258 256 255 254 253 253 252 251 250 248 248 246 245 243 246 257 264 263 265 269 268 267 265 261 259 258 257 257 258 258 258 262 263 261 260 259 258 256
267 267 267 267 269 271 270 269 269 267 266 265 264 263 262 260 259 258 259 259 260 263 265 267 268 270 272 273 270 268 267 267 267 266 264 263 260 258 256 254 253 253 254 255 257 258 259 260 259 257 256 254 251 248 250 250 248 247 248 248 250 252 254 257 257 261 268 269 269 269 267 262 259 258 257 258 258 258 260 261 261 262 261 258 257
269 266 263 264 267 268 269 269 269 268 266 265 264 263 263 262 261 260 260 261 263 266 268 267 268 270 271 272 271 270 268 268 268 267 266 265 263 261 259 257 255 254 254 254 256 258 259 259 258 257 256 253 251 250 251 250 249 250 250 249 252 254 253 254 256 258 260 265 268 269 268 264 259 259 259 260 261 260 261 261 262 264 264 262 261
273 268 265 267 269 268 265 264 265 266 267 267 265 264 264 264 263 262 262 262 264 266 266 266 267 268 269 270 270 269 269 269 268 267 266 265 264 263 261 259 258 257 255 256 257 258 258 258 258 257 256 255 253 252 251 251 250 252 252 251 254 256 255 254 253 253 253 258 263 265 268 264 259 262 264 264 264 264 265 265 263 263 263 263 262
283 278 275 272 269 264 261 262 263 267 270 269 267 265 265 265 263 263 264 265 265 264 264 264 265 265 266 267 267 267 268 268 268 268 266 265 264 264 263 262 262 260 258 258 258 258 258 258 258 258 258 257 256 254 253 253 252 251 252 252 253 254 253 253 252 251 249 252 256 261 266 264 262 268 271 269 269 270 270 268 265 263 263 262 261
288 282 280 277 271 266 264 264 265 267 270 270 268 267 266 265 265 265 266 267 267 266 265 265 265 264 265 266 267 267 268 268 269 269 268 266 264 264 264 264 264 262 260 259 258 259 259 259 259 259 259 258 258 256 256 255 253 252 251 251 251 253 253 256 260 258 254 253 254 259 265 265 265 271 274 273 273 273 271 270 266 264 265 264 262